Volver al catálogo

THOR ABLESTAR DEB

ActivoLEO
NORAD 230·DEBRIS·🇺🇸 United States

Lanzado Jun 29, 1961 desde Cape Canaveral Space Force Station

Loading…

Próximos Pases (próximas 24 horas)

TLE

ActualizadoSource: Space-Track

Época: Sep 5, 2026, 07:26 UTC

1 00230U 61015BN  26248.30985697  .00000008  00000-0  58936-4 0  9990
2 00230  66.8822 212.1160 0087217 117.3126 243.6870 13.96821082316941

Sigue THOR ABLESTAR DEB en tiempo real con AllMySat

Download on the App Store